Tracking 31027 objects as of 19-Jul-2025
HD Live streaming from Space Station
objects crossing your sky now

SL-14 R/B

Track SL-14 R/B now!
10-day predictions


NORAD ID: 22693
Int'l Code: 1993-038G
Perigee: 1,415.7 km
Apogee: 1,487.2 km
Inclination: 82.6 °
Period: 114.8 minutes
Semi major axis: 7822 km
RCS: 6.2821 m2 (large)
Launch date: June 24, 1993
Source: Commonwealth of Independent States (former USSR) (CIS)
Launch site: PLESETSK MISSILE AND SPACE COMPLEX (PKMTR)

Note: This is a ROCKET BODY
Your satellite tracking list
ICEYE-X27
Track 1 satellite(s)




NASA's NSSDC Master Catalog

Two Line Element Set (TLE):
1 22693U 93038G   25199.72799657  .00000023  00000-0  81297-4 0  9999
2 22693  82.5840 199.3086 0045704 350.7571 182.0789 12.54831286469199
Source of the keplerian elements: AFSPC